Weather History for Marrakech, Morocco

Change the Weather History Date:

Thursday, February 28, 2013

  Actual Average Record
Temperature  
Mean Temperature 56 °F -  
Max Temperature 64 °F 73 °F 82 °F (1997)
Min Temperature 48 °F 50 °F 42 °F (1999)
Degree Days  
Heating Degree Days 8    
Growing Degree Days 6 (Base 50)    
Moisture  
Dew Point 41 °F    
Average Humidity 61    
Maximum Humidity 88    
Minimum Humidity 31    
Precipitation  
Precipitation 0.00 in 0.05 in - ()
Sea Level Pressure  
Sea Level Pressure 29.98 in    
Wind  
Wind Speed 5 mph ()    
Max Wind Speed 12 mph    
Max Gust Speed -    
Visibility 5.6 miles    
Events      
Averages and records for this station are not official NWS values.
T = Trace of Precipitation, MM = Missing Value Source: Averaged Metar Reports

Daily Weather History Graph

Daily Weather History Graph

Search for Another Location

Airport:

Trip Planner

Search our weather history database for the weather conditions in past years. The results will help you decide how hot, cold, wet, or windy it might be!

Date:

Astronomy

Feb. 28, 2013 Rise Set
Actual Time 7:00 AM WET 6:29 PM WET
Civil Twilight 6:35 AM WET 6:53 PM WET
Nautical Twilight 6:07 AM WET 7:22 PM WET
Astronomical Twilight 5:39 AM WET 7:50 PM WET
Moon 9:25 PM WET (2/28) 8:15 AM WET (2/28)
Length of Visible Light 12h 18m
Length of Day
11h 29m
Waning Gibbous, 92% of the Moon is Illuminated
Feb 28
Waning Gibbous
Mar 4
Last Quarter
Mar 11
New
Mar 19
First Quarter
Mar 27
Full

Hourly Weather History & Observations

Time (WET) Temp. Dew Point Humidity Pressure Visibility Wind Dir Wind Speed Gust Speed Precip Events Conditions
12:00 AM 53 °F 48 °F 78% 29.94 in 4 mi NNW 5.8 mph - -   Mostly Cloudy
12:00 AM 53.6 °F 48.2 °F 82% 29.92 in 3.7 mi NW 5.8 mph - N/A   Mostly Cloudy
12:30 AM 53.6 °F 48.2 °F 82% 29.92 in 5.0 mi NNW 5.8 mph - N/A   Mostly Cloudy
1:00 AM 51.8 °F 48.2 °F 88% 29.92 in 4.3 mi North 5.8 mph - N/A   Mostly Cloudy
1:30 AM 51.8 °F 46.4 °F 82% 29.92 in 4.3 mi North 4.6 mph - N/A   Mostly Cloudy
2:00 AM 51.8 °F 46.4 °F 82% 29.95 in 5.0 mi NNW 5.8 mph - N/A   Mostly Cloudy
2:30 AM 51.8 °F 44.6 °F 76% 29.95 in 5.0 mi NNW 5.8 mph - N/A   Mostly Cloudy
3:00 AM 51 °F 44 °F 70% 29.95 in 6 mi NNW 2.3 mph - -   Mostly Cloudy
3:00 AM 51.8 °F 44.6 °F 76% 29.95 in 5.6 mi Variable 2.3 mph - N/A   Mostly Cloudy
3:30 AM 51.8 °F 44.6 °F 76% 29.92 in 5.6 mi Variable 1.2 mph - N/A   Mostly Cloudy
4:00 AM 51.8 °F 44.6 °F 76% 29.95 in 5.0 mi Variable 2.3 mph - N/A   Unknown
4:30 AM 50.0 °F 46.4 °F 87% 29.95 in 5.6 mi West 4.6 mph - N/A   Mostly Cloudy
5:00 AM 50.0 °F 44.6 °F 82% 29.95 in 5.6 mi West 5.8 mph - N/A   Mostly Cloudy
5:30 AM 50.0 °F 44.6 °F 82% 29.95 in 5.6 mi West 4.6 mph - N/A   Mostly Cloudy
6:00 AM 51 °F 44 °F 68% 29.97 in 6 mi WNW 4.6 mph - -   Mostly Cloudy
6:00 AM 50.0 °F 42.8 °F 76% 29.95 in 5.6 mi WNW 3.5 mph - N/A   Mostly Cloudy
6:30 AM 50.0 °F 42.8 °F 76% 29.95 in 5.6 mi WNW 6.9 mph - N/A   Mostly Cloudy
7:00 AM 50.0 °F 44.6 °F 82% 29.95 in 5.6 mi NNW 4.6 mph - N/A   Mostly Cloudy
7:30 AM 50.0 °F 44.6 °F 82% 29.95 in 5.0 mi West 2.3 mph - N/A   Mostly Cloudy
8:00 AM 50.0 °F 44.6 °F 82% 29.98 in 5.0 mi WSW 3.5 mph - N/A   Mostly Cloudy
8:30 AM 51.8 °F 44.6 °F 76% 29.98 in 5.0 mi Variable 2.3 mph - N/A   Mostly Cloudy
9:00 AM 51.8 °F 44.6 °F 76% 29.98 in 5.0 mi Calm Calm - N/A   Mostly Cloudy
9:30 AM 53.6 °F 44.6 °F 72% 29.98 in 5.0 mi Variable 1.2 mph - N/A   Mostly Cloudy
10:00 AM 55.4 °F 42.8 °F 63% 30.01 in 5.6 mi WSW 3.5 mph - N/A   Mostly Cloudy
10:30 AM 57.2 °F 42.8 °F 59% 30.01 in 5.6 mi Variable 3.5 mph - N/A   Mostly Cloudy
11:00 AM 59.0 °F 41.0 °F 51% 30.01 in 5.6 mi NNW 3.5 mph - N/A   Mostly Cloudy
11:30 AM 57.2 °F 41.0 °F 55% 30.01 in 5.6 mi West 4.6 mph - N/A   Mostly Cloudy
12:00 PM 62 °F 41 °F 34% 30.00 in 6 mi West 5.8 mph - -   Mostly Cloudy
12:00 PM 62.6 °F 41.0 °F 45% 30.01 in 5.6 mi West 5.8 mph - N/A   Mostly Cloudy
12:30 PM 60.8 °F 39.2 °F 45% 30.01 in 6.2 mi WNW 4.6 mph - N/A   Mostly Cloudy
1:00 PM 59.0 °F 39.2 °F 48% 30.01 in 6.2 mi WNW 8.1 mph - N/A   Mostly Cloudy
1:30 PM 60.8 °F 39.2 °F 45% 30.01 in 6.2 mi West 5.8 mph - N/A   Mostly Cloudy
2:00 PM 60.8 °F 37.4 °F 42% 29.98 in 6.2 mi NW 8.1 mph - N/A   Mostly Cloudy
2:30 PM 60.8 °F 37.4 °F 42% 29.98 in 6.2 mi West 5.8 mph - N/A   Mostly Cloudy
3:00 PM 62 °F 39 °F 31% 29.96 in 6 mi NW 6.9 mph - -   Mostly Cloudy
3:00 PM 62.6 °F 39.2 °F 42% 29.98 in 6.2 mi WNW 5.8 mph - N/A   Mostly Cloudy
3:30 PM 60.8 °F 39.2 °F 45% 29.98 in 6.2 mi WNW 6.9 mph - N/A   Mostly Cloudy
4:00 PM 60.8 °F 37.4 °F 42% 30.01 in 6.2 mi WNW 8.1 mph - N/A   Mostly Cloudy
4:30 PM 60.8 °F 39.2 °F 45% 30.01 in 6.2 mi WNW 6.9 mph - N/A   Mostly Cloudy
5:00 PM 59.0 °F 39.2 °F 48% 30.01 in 6.2 mi WNW 8.1 mph - N/A   Mostly Cloudy
5:30 PM 59.0 °F 39.2 °F 48% 30.01 in 6.2 mi WNW 5.8 mph - N/A   Mostly Cloudy
6:00 PM 61 °F 39 °F 33% 29.96 in 6 mi NNW 3.5 mph - -   Mostly Cloudy
6:00 PM 62.6 °F 39.2 °F 42% 29.98 in 6.2 mi NNW 3.5 mph - N/A   Mostly Cloudy
6:30 PM 57.2 °F 37.4 °F 48% 29.98 in 6.2 mi NNW 5.8 mph - N/A   Scattered Clouds
7:00 PM 57.2 °F 35.6 °F 44% 29.98 in 5.6 mi North 4.6 mph - N/A   Scattered Clouds
7:30 PM 55.4 °F 35.6 °F 47% 30.01 in 5.0 mi NNW 3.5 mph - N/A   Scattered Clouds
8:00 PM 55.4 °F 35.6 °F 47% 30.01 in 4.3 mi North 3.5 mph - N/A   Scattered Clouds
8:30 PM 55.4 °F 35.6 °F 47% 30.01 in 5.0 mi North 8.1 mph - N/A   Scattered Clouds
9:00 PM 53.6 °F 39.2 °F 58% 30.04 in 6.2 mi North 11.5 mph - N/A   Scattered Clouds
9:30 PM 51.8 °F 37.4 °F 58% 30.04 in 6.2 mi North 10.4 mph - N/A   Mostly Cloudy
10:00 PM 51.8 °F 37.4 °F 58% 30.06 in 6.2 mi NE 9.2 mph - N/A   Mostly Cloudy
10:30 PM 51.8 °F 37.4 °F 58% 30.06 in 6.2 mi NE 9.2 mph - N/A   Mostly Cloudy
11:00 PM 50.0 °F 37.4 °F 62% 30.04 in 6.2 mi ENE 9.2 mph - N/A   Scattered Clouds
11:30 PM 48.2 °F 35.6 °F 62% 30.06 in 6.2 mi NE 8.1 mph - N/A   Scattered Clouds